Flag for Canada Weather past 2 weeks in Charlottetown, Pr.Edward I, Canada

Now
66 °F

Passing clouds.


Feels Like: 66 °F
Forecast: 62 / 72 °F
Wind: 10 mph from Southeast

Location: Charlottetown

Current Time: Sep 2, 2014 at 11:26:02 PM

Latest Report: Sep 2, 2014 at 11:00 PM


Visibility: 15 mi

Pressure: 29.86 "Hg

Humidity: 100%

Dew point: 66 °F

Location of CharlottetownLocation

Historic Weather in Charlottetown — Graph

°F

Charlottetown temperature yesterday

Maximum temperature yesterday: 68 °F (at 12:00 PM)
Minimum temperature yesterday: 63 °F (at 8:00 PM)
Average temperature yesterday: 66 °F

Past Weeks' High & Low Weather Summary

 TemperatureHumidityPressure
High81 °F (Aug 26, 3:00 PM)100% (Aug 19, 1:00 AM)30.26 "Hg (Aug 19, 1:00 AM)
Low46 °F (Aug 29, 11:00 PM)46% (Aug 30, 6:00 PM)29.55 "Hg (Aug 18, 10:55 PM)
Average64 °F83%29.98 "Hg
* Reported Aug 18 10:00 PM — Sep 2 10:00 PM, Charlottetown, Weather by CustomWeather, © 2014

Note: Actual official high and low records may vary slightly from our data, if they occured in-between our weather recording intervals... More about our weather records

Advertising

Charlottetown weather history for previous 24 hours

 ConditionsComfort  
Time TempWeatherWind HumidityBarometerVisibility
10:00 PM
Sep 2
66 °FPassing clouds.8 mph100%29.87 "Hg15 mi
9:00 PM66 °FPassing clouds.9 mph100%29.87 "Hg15 mi
8:00 PM68 °FBroken clouds.7 mph94%29.86 "Hg15 mi
7:00 PM72 °FPartly sunny.10 mph83%29.87 "Hg15 mi
6:00 PM72 °FPartly sunny.9 mph88%29.87 "Hg15 mi
5:00 PM72 °FPartly sunny.9 mph88%29.89 "Hg12 mi
4:00 PM72 °FMostly cloudy.9 mph88%29.90 "Hg12 mi
3:00 PM72 °FMostly cloudy.10 mph88%29.92 "Hg10 mi
2:48 PM72 °FPartly sunny.8 mph88%29.92 "Hg10 mi
2:00 PM72 °FMostly cloudy.9 mph88%29.93 "Hg8 mi
1:00 PM70 °FFog.8 mph94%29.94 "Hg6 mi
12:48 PM68 °FFog.8 mph94%29.94 "Hg3 mi
12:00 PM68 °FSprinkles. Fog.7 mph94%29.95 "Hg2 mi
11:00 AM68 °FFog.10 mph88%29.95 "Hg6 mi
10:00 AM66 °FFog.10 mph94%29.96 "Hg2 mi
9:46 AM64 °FFog.8 mph100%29.96 "Hg2 mi
9:00 AM63 °FFog.8 mph100%29.97 "Hg1 mi
8:57 AM63 °FFog.7 mph100%29.97 "Hg0 mi
8:00 AM59 °FFog.7 mph100%29.97 "Hg0 mi
7:00 AM59 °FFog.5 mph100%29.98 "Hg0 mi
6:53 AM59 °FFog.5 mph100%29.98 "Hg0 mi
6:00 AM59 °FFog.7 mph100%29.99 "Hg1 mi
5:00 AM61 °FFog.6 mph100%29.99 "Hg1 mi
4:00 AM61 °FFog.2 mph100%29.99 "Hg1 mi
3:00 AM61 °FFog.5 mph94%29.99 "Hg1 mi
2:00 AM59 °FFog.2 mph100%30.00 "Hg4 mi
1:00 AM61 °FFog.5 mph94%30.01 "Hg3 mi
12:00 AM61 °FLow clouds.5 mph100%30.01 "Hg15 mi
11:00 PM
Sep 1
63 °FMostly cloudy.3 mph94%30.00 "Hg15 mi
Weather by CustomWeather, © 2014

See weather overviewHow to use our weather pages